Greenville, ME

12:07 PM EDT on April 25, 2017 (GMT -0400)
Greenville

Weather History for KGNR - January, 2014

Change the Weather History Date:

Saturday, January 25, 2014

  Actual Average (KMLT) Record (KMLT)
Temperature  
Mean Temperature 10 °F -  
Max Temperature 21 °F 29 °F 49 °F (1953)
Min Temperature 0 °F 4 °F -24 °F (1918)
Degree Days  
Heating Degree Days 54    
Moisture  
Dew Point 5 °F    
Average Humidity 72    
Maximum Humidity 92    
Minimum Humidity 51    
Precipitation  
Precipitation 0.09 in - - ()
Sea Level Pressure  
Sea Level Pressure 29.54 in    
Wind  
Wind Speed 7 mph (South)    
Max Wind Speed 17 mph    
Max Gust Speed 32 mph    
Averages and records for this station are not official NWS values.
T = Trace of Precipitation, MM = Missing Value Source: NWS Daily Summary

Daily Weather History Graph

Daily Weather History Graph

Search for Another Location

Airport or City:

Trip Planner

Search our weather history database for the weather conditions in past years. The results will help you decide how hot, cold, wet, or windy it might be!

Date:

Astronomy

Jan. 25, 2014 Rise Set
Actual Time 7:06 AM EST 4:35 PM EST
Civil Twilight 6:34 AM EST 5:07 PM EST
Nautical Twilight 5:58 AM EST 5:43 PM EST
Astronomical Twilight 5:23 AM EST 6:18 PM EST
Moon 1:33 AM EST 11:33 AM EST
Length of Visible Light 10h 32m
Length of Day
9h 28m
Waning Crescent, 34% of the Moon is Illuminated
Jan 25
Waning Crescent
Jan 30
New
Feb 6
First Quarter
Feb 14
Full
Feb 22
Last Quarter

Hourly Weather History & Observations

Time (EST) Temp. Windchill Dew Point Humidity Pressure Visibility Wind Dir Wind Speed Gust Speed Precip Events Conditions
12:56 AM -0.9 °F -12.7 °F -11.0 °F 62% 29.86 in - SSE 5.8 mph - N/A   Unknown
1:56 AM -0.0 °F -11.6 °F -9.9 °F 63% 29.84 in - SSE 5.8 mph - N/A   Unknown
2:56 AM -0.9 °F -12.7 °F -9.9 °F 66% 29.81 in - Variable 5.8 mph - N/A   Unknown
3:56 AM 1.0 °F -11.7 °F -8.0 °F 66% 29.78 in - SSE 6.9 mph - N/A   Unknown
4:56 AM 1.9 °F -10.6 °F -7.1 °F 66% 29.75 in - Variable 6.9 mph - N/A   Unknown
5:56 AM 1.9 °F -11.8 °F -7.1 °F 66% 29.74 in - SE 8.1 mph - N/A   Unknown
6:56 AM 3.0 °F -10.5 °F -6.0 °F 66% 29.73 in - South 8.1 mph - N/A   Unknown
7:56 AM 3.9 °F -8.2 °F -5.1 °F 66% 29.70 in - SSE 6.9 mph - N/A   Unknown
8:56 AM 7.0 °F 0.1 °F -4.0 °F 61% 29.70 in - Variable 3.5 mph - N/A   Unknown
9:56 AM 12.9 °F -3.9 °F -2.0 °F 51% 29.65 in - South 17.3 mph 32.2 mph N/A   Unknown
10:56 AM 15.1 °F -0.6 °F 1.0 °F 54% 29.62 in - South 16.1 mph 29.9 mph N/A   Unknown
11:56 AM 17.1 °F 5.0 °F 3.9 °F 56% 29.58 in - South 10.4 mph 20.7 mph N/A   Unknown
12:56 PM 19.0 °F 4.5 °F 9.0 °F 65% 29.52 in - South 16.1 mph 28.8 mph N/A   Unknown
1:56 PM 19.9 °F 8.6 °F 12.0 °F 71% 29.49 in - SSW 10.4 mph 23.0 mph N/A   Unknown
2:56 PM 21.0 °F 8.6 °F 12.9 °F 71% 29.46 in - South 12.7 mph 24.2 mph N/A   Unknown
3:56 PM 21.9 °F 11.0 °F 15.1 °F 75% 29.43 in - South 10.4 mph 18.4 mph N/A   Unknown
4:56 PM 21.0 °F 13.4 °F 15.1 °F 78% 29.40 in - SSE 5.8 mph - N/A   Unknown
5:56 PM 19.9 °F 12.1 °F 17.1 °F 89% 29.37 in - SSE 5.8 mph - 0.01 in   Unknown
6:56 PM 19.9 °F 12.1 °F 17.1 °F 89% 29.33 in - SE 5.8 mph - N/A   Unknown
7:56 PM 21.0 °F 13.4 °F 19.0 °F 92% 29.29 in - Variable 5.8 mph - 0.03 in   Unknown
8:56 PM 21.9 °F 14.5 °F 19.9 °F 92% 29.26 in - South 5.8 mph - 0.02 in   Unknown
9:56 PM 21.9 °F - 19.9 °F 92% 29.22 in - Calm Calm - 0.02 in   Unknown
10:56 PM 21.9 °F - 19.0 °F 89% 29.18 in - Calm Calm - 0.01 in   Unknown
11:56 PM 19.9 °F - 17.1 °F 89% 29.14 in - Calm Calm - N/A   Unknown